sat.trackr.live / text

‹ back to catalog

STARLINK-33625

NORAD 63327 · 2025-057W

PAYLOAD ACTIVE UNKNOWN

§ Identity

Operator
Country
US
Launch date
2025-03-18
Launch site
AFETR
Launch vehicle
Mass (kg)
RCS (m²)

Purposes: comms

External: N2YO · Heavens-Above · Gunter

§ Orbital elements

Epoch: 2026-05-25T04:20:01.387104Z

Period
94.27 min
Inclination
43.0004°
Eccentricity
0.0001465
Mean motion
15.27585890 rev/d
Perigee alt
482.0 km
Apogee alt
484.0 km
Semi-major
6,861.2 km
B*
6.1166e-4
RAAN
311.2675°
Arg perigee
274.8166°
Mean anomaly
85.2518°
Rev number
6,756

§ Raw data

STARLINK-336251 63327U 25057W   26145.18057161  .00016610  00000+0  61166-3 0  99932 63327  43.0004 311.2675 0001465 274.8166  85.2518 15.27585890 67562

JSON: /api/v1/satellites/63327 · /tle

For live sub-satellite position, see the globe view (requires WebGL).

§ Visibility from observer

Set your observer location to see the next 7 days of passes ≥ 10°. The values pass through the URL so the page stays shareable.

No JS? Fill the form by hand. The geolocation button needs JavaScript.